KOMPSAT 5

导读

KOMPSAT 5是韩国(KR)于2013年8月22日发射的多用途实用卫星,属于韩国阿里郎卫星系列。该卫星搭载合成孔径雷达,具备全天候全天时对地观测能力,可提供高分辨率遥感图像,服务于地理测绘、海洋监测、灾害监测与环境保护等多个领域,是韩国自主航天遥感体系的重要组成部分。

基本信息
目录编号:
39227
目录名称:
KOMPSAT 5
国际标识:
2013-042A
轨道中心:
EARTH
卫星名称:
KOMPSAT 5
卫星全名:
--
卫星状态:
在轨 (已飞行4761 天)
发射日期:
2013-08-22 UTC
国别 :
韩国 (KR)
星等 :
--
轨道信息
数据来源 国际轨道数据
星历时间: 2026-09-04T15:28:09+0800
9小时前
查看轨道信息
半长轴: 6931.044km
偏心率: 0.0002409
轨道倾角: 97.623°
近地点辐角 193.085°
升交点赤经 72.910°
平近点角 167.031°
近地点: 551.237km
远地点: 554.577km
周期: 95.710分钟
每日圈数: 15.045439
详细信息
使用方式:
暂无
2D轨道图
3D轨道图
轨道高度分析图
轨道倾角分析图
轨道综合分析图
查看轨道综合分析图
交会数据列表
事件ID 空间交会对象 最接近时刻(TCA) 交会距离 交会风险概率(CRP) 交会风险指数(CRI) 操作
CDM_260906-022203-922706-134022
2026-09-06T
02:22:45+0000
0.309 km
远距离
4.953589E-4 高风险 0.89
CDM_260904-161003-922705-375424
2026-09-04T
16:10:45+0000
1.007 km
极远距离
2.636835E-5 中风险 0.63
CDM_260904-113703-922705-635924
2026-09-04T
11:37:13+0000
1.304 km
极远距离
1.084505E-5 中风险 0.56